EW7469 Weather Reports


Display with metric or nautical units.
time (UTC)temp
F
wind
direction
speed
MPH
gust
MPH
rain 1hr
in
rain 24hr
in
rain mn
in
humidity
%
barometer
mb
20191022011335 81 212 0.0 1.0 0.00 0.00 0.00 87 1015.0
20191022010851 81 200 0.0 1.0 0.00 0.00 0.00 87 1015.0
20191022010336 81 207 0.0 0.0 0.00 0.00 0.00 87 1015.0
20191022005917 81 207 0.0 0.0 0.00 0.00 0.00 87 1014.8
20191022005333 81 207 0.0 0.0 0.00 0.00 0.00 86 1014.8
20191022004842 82 207 0.0 0.0 0.00 0.00 0.00 86 1014.8
20191022004357 82 177 0.0 4.0 0.00 0.00 0.00 86 1014.7
20191022003855 82 173 0.0 4.0 0.00 0.00 0.00 86 1014.7
20191022003357 82 169 0.0 0.0 0.00 0.00 0.00 85 1014.7
20191022002837 82 171 0.0 0.0 0.00 0.00 0.00 85 1014.7
20191022002437 82 171 0.0 0.0 0.00 0.00 0.00 85 1014.7
20191022001834 82 212 0.0 0.0 0.00 0.00 0.00 84 1014.7
20191022001338 82 214 0.0 6.0 0.00 0.00 0.00 84 1014.5
20191022000858 82 214 1.0 6.0 0.00 0.00 0.00 84 1014.5
20191022000353 82 191 0.0 4.0 0.00 0.00 0.00 83 1014.5
20191021235840 82 184 0.0 4.0 0.00 0.00 0.00 83 1014.5
20191021235339 82 116 0.0 0.0 0.00 0.00 0.00 83 1014.5
20191021234842 82 180 0.0 1.0 0.00 0.00 0.00 83 1014.5
20191021234351 82 185 0.0 5.0 0.00 0.00 0.00 83 1014.3
20191021233849 82 176 1.0 5.0 0.00 0.00 0.00 82 1014.3
20191021233356 83 176 0.0 7.0 0.00 0.00 0.00 81 1014.3
20191021232832 83 172 0.0 7.0 0.00 0.00 0.00 81 1014.1
20191021232339 83 165 0.0 3.0 0.00 0.00 0.00 80 1014.1
20191021231856 83 178 0.0 1.0 0.00 0.00 0.00 80 1014.1
20191021231344 83 180 0.0 6.0 0.00 0.00 0.00 79 1014.1
20191021230903 83 166 1.0 7.0 0.00 0.00 0.00 79 1014.1
20191021230345 84 179 0.0 7.0 0.00 0.00 0.00 79 1014.1
20191021225833 84 162 0.0 0.0 0.00 0.00 0.00 79 1014.3
20191021225348 84 162 0.0 0.0 0.00 0.00 0.00 79 1014.3
20191021224847 84 162 0.0 0.0 0.00 0.00 0.00 78 1014.3
20191021224422 85 162 0.0 0.0 0.00 0.00 0.00 77 1014.3
20191021224340 85 162 0.0 0.0 0.00 0.00 0.00 77 1014.3
20191021223859 85 161 0.0 0.0 0.00 0.00 0.00 77 1014.3
20191021223359 85 160 0.0 0.0 0.00 0.00 0.00 76 1014.3
20191021222847 85 160 0.0 4.0 0.00 0.00 0.00 75 1014.2
20191021222409 86 176 0.0 6.0 0.00 0.00 0.00 74 1014.2
20191021221842 86 174 1.0 6.0 0.00 0.00 0.00 73 1014.2
20191021221358 86 195 0.0 5.0 0.00 0.00 0.00 72 1014.0
20191021220858 87 201 1.0 5.0 0.00 0.00 0.00 71 1014.0
20191021220338 87 175 1.0 4.0 0.00 0.00 0.00 71 1014.0
20191021215847 88 132 0.0 3.0 0.00 0.00 0.00 70 1014.0
20191021215351 88 101 0.0 3.0 0.00 0.00 0.00 69 1014.0
20191021214839 89 161 0.0 7.0 0.00 0.00 0.00 67 1014.0
20191021214346 90 155 1.0 7.0 0.00 0.00 0.00 66 1014.1
20191021213904 91 168 0.0 4.0 0.00 0.00 0.00 63 1014.1
20191021213348 91 208 1.0 4.0 0.00 0.00 0.00 56 1014.1
20191021212837 91 217 0.0 2.0 0.00 0.00 0.00 56 1014.0
20191021212356 92 217 0.0 2.0 0.00 0.00 0.00 55 1014.0
20191021211916 92 217 0.0 1.0 0.00 0.00 0.00 52 1014.0
20191021211336 92 177 0.0 4.0 0.00 0.00 0.00 56 1014.0
20191021210842 92 178 0.0 4.0 0.00 0.00 0.00 54 1014.0
20191021210358 92 212 0.0 7.0 0.00 0.00 0.00 52 1014.0
20191021205840 93 213 0.0 7.0 0.00 0.00 0.00 50 1014.1
20191021205348 93 176 0.0 5.0 0.00 0.00 0.00 49 1014.1
20191021204845 93 181 1.0 6.0 0.00 0.00 0.00 50 1014.1
20191021204425 93 253 3.0 6.0 0.00 0.00 0.00 48 1014.0
20191021204343 93 253 3.0 6.0 0.00 0.00 0.00 48 1014.0
20191021203850 93 181 1.0 6.0 0.00 0.00 0.00 50 1014.0
20191021203338 93 274 2.0 6.0 0.00 0.00 0.00 49 1014.0
20191021202847 93 238 0.0 5.0 0.00 0.00 0.00 49 1014.1
20191021202351 93 267 0.0 6.0 0.00 0.00 0.00 49 1014.1
20191021201841 93 257 1.0 6.0 0.00 0.00 0.00 49 1014.1
20191021201357 93 229 0.0 7.0 0.00 0.00 0.00 49 1014.0
20191021200845 93 256 3.0 7.0 0.00 0.00 0.00 49 1014.0
20191021200401 94 214 2.0 10.0 0.00 0.00 0.00 48 1014.0
20191021195849 94 248 4.0 10.0 0.00 0.00 0.00 48 1014.0
20191021195358 94 246 3.0 10.0 0.00 0.00 0.00 49 1014.0
20191021194839 94 184 1.0 10.0 0.00 0.00 0.00 48 1014.0
20191021194347 94 255 5.0 10.0 0.00 0.00 0.00 49 1014.0
20191021193922 94 250 3.0 9.0 0.00 0.00 0.00 51 1014.0
20191021193359 94 232 2.0 7.0 0.00 0.00 0.00 50 1014.0
20191021192918 94 213 0.0 7.0 0.00 0.00 0.00 50 1014.1
20191021192339 95 228 1.0 11.0 0.00 0.00 0.00 49 1014.1
20191021191913 95 245 6.0 11.0 0.00 0.00 0.00 49 1014.1
20191021191412 95 246 5.0 11.0 0.00 0.00 0.00 52 1014.1
20191021190911 94 273 3.0 11.0 0.00 0.00 0.00 52 1014.1
20191021190337 94 279 6.0 11.0 0.00 0.00 0.00 51 1014.1
20191021185841 94 264 1.0 11.0 0.00 0.00 0.00 52 1014.3
20191021185339 94 248 3.0 11.0 0.00 0.00 0.00 52 1014.3
20191021184855 94 271 5.0 11.0 0.00 0.00 0.00 51 1014.3
20191021184353 94 248 5.0 11.0 0.00 0.00 0.00 50 1014.4
20191021183908 94 219 0.0 9.0 0.00 0.00 0.00 55 1014.4
20191021183354 94 222 4.0 9.0 0.00 0.00 0.00 54 1014.4
20191021182834 94 224 0.0 9.0 0.00 0.00 0.00 53 1014.5
20191021182349 94 244 4.0 6.0 0.00 0.00 0.00 52 1014.5
20191021181836 93 278 0.0 10.0 0.00 0.00 0.00 55 1014.5
20191021181340 93 263 5.0 10.0 0.00 0.00 0.00 52 1014.6
20191021180919 93 267 3.0 9.0 0.00 0.00 0.00 51 1014.6
20191021180336 93 268 2.0 6.0 0.00 0.00 0.00 55 1014.6
20191021175851 92 221 2.0 7.0 0.00 0.00 0.00 56 1014.8
20191021175349 92 228 1.0 7.0 0.00 0.00 0.00 56 1014.8
20191021174924 92 231 0.0 7.0 0.00 0.00 0.00 55 1014.8
20191021174408 91 210 0.0 7.0 0.00 0.00 0.00 57 1014.8
20191021173905 91 268 0.0 7.0 0.00 0.00 0.00 56 1014.8
20191021173400 91 151 2.0 10.0 0.00 0.00 0.00 57 1014.8
20191021172858 91 178 0.0 10.0 0.00 0.00 0.00 59 1014.9
20191021172347 90 176 0.0 7.0 0.00 0.00 0.00 59 1014.9
20191021171845 90 255 4.0 7.0 0.00 0.00 0.00 59 1014.9
20191021171339 90 208 1.0 6.0 0.00 0.00 0.00 58 1015.0
20191021170858 91 207 0.0 11.0 0.00 0.00 0.00 58 1015.0
20191021170340 91 203 0.0 11.0 0.00 0.00 0.00 59 1015.0
20191021165847 91 252 0.0 9.0 0.00 0.00 0.00 61 1015.1
20191021165335 91 187 2.0 9.0 0.00 0.00 0.00 58 1015.1
20191021164839 91 236 2.0 10.0 0.00 0.00 0.00 59 1015.1
20191021164355 91 205 2.0 10.0 0.00 0.00 0.00 58 1015.1
20191021163842 91 218 0.0 9.0 0.00 0.00 0.00 60 1015.1
20191021163422 90 216 4.0 9.0 0.00 0.00 0.00 61 1015.1
20191021162845 90 180 3.0 7.0 0.00 0.00 0.00 60 1015.3
20191021162333 90 193 0.0 11.0 0.00 0.00 0.00 62 1015.3
20191021161913 89 252 3.0 14.0 0.00 0.00 0.00 63 1015.3
20191021161341 88 271 7.0 14.0 0.00 0.00 0.00 63 1015.4
20191021160900 88 237 2.0 6.0 0.00 0.00 0.00 66 1015.4
20191021160342 87 178 0.0 6.0 0.00 0.00 0.00 70 1015.4
20191021155909 87 170 0.0 7.0 0.00 0.00 0.00 69 1015.6
20191021155355 86 214 1.0 7.0 0.00 0.00 0.00 68 1015.6
20191021154843 86 158 1.0 6.0 0.00 0.00 0.00 70 1015.6
20191021154346 86 246 1.0 7.0 0.00 0.00 0.00 74 1015.6
20191021153834 85 249 0.0 7.0 0.00 0.00 0.00 73 1015.5
20191021153352 85 234 1.0 9.0 0.00 0.00 0.00 75 1015.5
20191021152912 84 248 3.0 9.0 0.00 0.00 0.00 74 1015.4
20191021152339 84 253 2.0 7.0 0.00 0.00 0.00 74 1015.4
20191021151843 84 262 3.0 7.0 0.00 0.00 0.00 77 1015.4
20191021151333 84 253 1.0 4.0 0.00 0.00 0.00 78 1015.3
20191021150839 84 245 0.0 3.0 0.00 0.00 0.00 78 1015.3
20191021150347 84 202 1.0 3.0 0.00 0.00 0.00 76 1015.3
20191021145840 83 221 0.0 5.0 0.00 0.00 0.00 78 1015.2
20191021145419 83 255 1.0 6.0 0.00 0.00 0.00 79 1015.2
20191021144846 83 199 0.0 11.0 0.00 0.00 0.00 79 1015.2
20191021144352 83 252 1.0 11.0 0.00 0.00 0.00 80 1015.2
20191021143854 82 260 1.0 5.0 0.00 0.00 0.00 83 1015.2
20191021143339 82 267 0.0 5.0 0.00 0.00 0.00 84 1015.2
20191021142847 81 264 2.0 5.0 0.00 0.00 0.00 86 1015.1
20191021142406 81 248 0.0 4.0 0.00 0.00 0.00 86 1015.1
20191021141843 81 240 0.0 2.0 0.00 0.00 0.00 88 1015.1
20191021141357 81 251 0.0 4.0 0.00 0.00 0.00 89 1015.1
20191021140836 80 251 0.0 5.0 0.00 0.00 0.00 90 1015.1
20191021140352 80 257 0.0 5.0 0.00 0.00 0.00 91 1015.1
20191021135838 79 257 0.0 5.0 0.00 0.00 0.00 92 1015.1
20191021135344 79 263 0.0 3.0 0.00 0.00 0.00 94 1015.1
20191021134859 79 262 0.0 3.0 0.00 0.00 0.00 95 1015.1
20191021134354 79 259 0.0 5.0 0.00 0.00 0.00 96 1015.2
20191021133840 78 255 2.0 5.0 0.00 0.00 0.00 96 1015.2
20191021133329 78 256 0.0 3.0 0.00 0.00 0.00 97 1015.2
20191021132840 78 255 1.0 5.0 0.00 0.00 0.00 97 1015.1
20191021132415 78 257 0.0 5.0 0.00 0.00 0.00 98 1015.1
20191021132333 78 257 0.0 5.0 0.00 0.00 0.00 98 1015.1
20191021131847 77 243 2.0 4.0 0.00 0.00 0.00 99 1015.1
20191021131406 77 252 1.0 4.0 0.00 0.00 0.00 100 1015.2
20191021130905 77 207 0.0 6.0 0.00 0.00 0.00 100 1015.2
20191021130338 77 207 0.0 6.0 0.00 0.00 0.00 100 1015.2
20191021125938 77 249 0.0 3.0 0.00 0.00 0.00 100 1015.0
20191021125413 76 343 0.0 0.0 0.00 0.00 0.00 99 1015.0
20191021124856 76 343 0.0 0.0 0.00 0.00 0.00 99 1015.0
20191021124342 76 343 0.0 0.0 0.00 0.00 0.00 98 1015.0
20191021123929 76 343 0.0 0.0 0.00 0.00 0.00 98 1015.0
20191021123334 76 343 0.0 0.0 0.00 0.00 0.00 97 1015.0
20191021122838 76 343 0.0 0.0 0.00 0.00 0.00 97 1015.0
20191021122358 75 343 0.0 0.0 0.00 0.00 0.00 97 1015.0
20191021121858 75 343 0.0 0.0 0.00 0.00 0.00 96 1015.0
20191021121339 75 343 0.0 0.0 0.00 0.00 0.00 96 1014.7
20191021120850 75 343 0.0 0.0 0.00 0.00 0.00 96 1014.7
20191021120354 75 343 0.0 0.0 0.00 0.00 0.00 96 1014.7
20191021115841 75 343 0.0 0.0 0.00 0.00 0.00 96 1014.6
20191021115347 75 343 0.0 0.0 0.00 0.00 0.00 96 1014.6
20191021114856 75 343 0.0 0.0 0.00 0.00 0.00 96 1014.6
20191021114337 75 343 0.0 0.0 0.00 0.00 0.00 96 1014.5
20191021113841 75 343 0.0 0.0 0.00 0.00 0.00 95 1014.5
20191021113357 76 343 0.0 0.0 0.00 0.00 0.00 95 1014.5
20191021112857 76 343 0.0 0.0 0.00 0.00 0.00 95 1014.4
20191021112346 76 343 0.0 0.0 0.00 0.00 0.00 95 1014.4
20191021111901 76 343 0.0 0.0 0.00 0.00 0.00 95 1014.4
20191021111338 76 343 0.0 0.0 0.00 0.00 0.00 95 1014.2
20191021110845 76 343 0.0 0.0 0.00 0.00 0.00 95 1014.2
20191021110354 76 343 0.0 0.0 0.00 0.00 0.00 95 1014.2
20191021105843 76 343 0.0 0.0 0.00 0.00 0.00 94 1014.0
20191021105347 76 343 0.0 0.0 0.00 0.00 0.00 94 1014.0
20191021104836 76 343 0.0 0.0 0.00 0.00 0.00 94 1014.0
20191021104345 77 343 0.0 0.0 0.00 0.00 0.00 94 1013.9
20191021103855 77 343 0.0 0.0 0.00 0.00 0.00 94 1013.9
20191021103336 77 343 0.0 0.0 0.00 0.00 0.00 94 1013.9
20191021102842 77 343 0.0 0.0 0.00 0.00 0.00 94 1013.8
20191021102403 77 343 0.0 0.0 0.00 0.00 0.00 94 1013.8
20191021101850 77 343 0.0 0.0 0.00 0.00 0.00 94 1013.8
20191021101350 77 343 0.0 0.0 0.00 0.01 0.00 95 1013.6
20191021100854 77 343 0.0 0.0 0.00 0.01 0.00 95 1013.6
20191021100336 77 343 0.0 0.0 0.00 0.01 0.00 95 1013.6
20191021095831 77 343 0.0 0.0 0.00 0.01 0.00 95 1013.5
20191021095400 77 343 0.0 0.0 0.00 0.01 0.00 95 1013.5
20191021094847 77 343 0.0 0.0 0.00 0.01 0.00 95 1013.5
20191021094356 77 343 0.0 0.0 0.00 0.01 0.00 95 1013.6
20191021093844 78 343 0.0 0.0 0.00 0.01 0.00 95 1013.6
20191021093352 78 343 0.0 0.0 0.00 0.01 0.00 95 1013.6
20191021092842 78 343 0.0 0.0 0.00 0.01 0.00 95 1013.5
20191021092352 78 343 0.0 0.0 0.00 0.01 0.00 95 1013.5
20191021091908 78 343 0.0 0.0 0.00 0.01 0.00 95 1013.5
20191021091336 78 343 0.0 0.0 0.00 0.01 0.00 95 1013.5
20191021090844 78 343 0.0 0.0 0.00 0.01 0.00 95 1013.5
20191021090334 78 343 0.0 0.0 0.00 0.01 0.00 95 1013.5
20191021085844 78 343 0.0 0.0 0.00 0.01 0.00 95 1013.5
20191021085349 78 343 0.0 0.0 0.00 0.01 0.00 95 1013.5
20191021084839 78 343 0.0 0.0 0.00 0.01 0.00 94 1013.5
20191021084355 78 343 0.0 0.0 0.00 0.01 0.00 95 1013.5
20191021083856 78 343 0.0 0.0 0.00 0.01 0.00 94 1013.5
20191021083340 78 343 0.0 0.0 0.00 0.01 0.00 94 1013.5
20191021082857 78 343 0.0 0.0 0.00 0.01 0.00 94 1013.5
20191021082416 78 343 0.0 0.0 0.00 0.01 0.00 94 1013.5
20191021081844 78 343 0.0 0.0 0.00 0.01 0.00 94 1013.5
20191021081400 78 343 0.0 0.0 0.00 0.01 0.00 94 1013.5
20191021080858 78 343 0.0 0.0 0.00 0.01 0.00 94 1013.5
20191021080419 78 343 0.0 0.0 0.00 0.01 0.00 94 1013.5
20191021080337 78 343 0.0 0.0 0.00 0.01 0.00 94 1013.5
20191021075845 78 343 0.0 0.0 0.00 0.01 0.00 94 1013.5
20191021075332 78 343 0.0 0.0 0.00 0.01 0.00 93 1013.5
20191021074835 78 343 0.0 0.0 0.00 0.01 0.00 93 1013.5
20191021074351 78 343 0.0 0.0 0.00 0.01 0.00 93 1013.7
20191021073911 78 343 0.0 0.0 0.00 0.01 0.00 93 1013.7
20191021073338 78 343 0.0 0.0 0.00 0.01 0.00 93 1013.7
20191021072843 78 343 0.0 0.0 0.00 0.01 0.00 93 1013.8
20191021072404 78 343 0.0 0.0 0.00 0.01 0.00 93 1013.8
20191021071930 78 343 0.0 0.0 0.00 0.01 0.00 93 1013.8
20191021071357 78 343 0.0 0.0 0.00 0.01 0.00 93 1014.0
20191021070837 78 343 0.0 0.0 0.00 0.01 0.00 93 1014.0
20191021070341 78 343 0.0 0.0 0.00 0.01 0.00 93 1014.0
20191021065857 78 343 0.0 0.0 0.00 0.01 0.00 93 1014.0
20191021065338 78 343 0.0 0.0 0.00 0.01 0.00 92 1014.0
20191021064846 78 343 0.0 0.0 0.00 0.01 0.00 92 1014.0
20191021064422 78 343 0.0 0.0 0.00 0.01 0.00 92 1014.0
20191021063857 78 343 0.0 0.0 0.00 0.01 0.00 92 1014.0
20191021063342 78 343 0.0 0.0 0.00 0.01 0.00 92 1014.0
20191021062849 78 343 0.0 0.0 0.00 0.01 0.00 92 1013.9
20191021062345 78 343 0.0 0.0 0.00 0.01 0.00 92 1013.9
20191021061833 78 343 0.0 0.0 0.00 0.01 0.00 92 1013.9
20191021061414 78 343 0.0 0.0 0.00 0.01 0.00 92 1013.8
20191021060933 78 343 0.0 0.0 0.00 0.01 0.00 92 1013.8
20191021060354 78 343 0.0 0.0 0.00 0.01 0.00 92 1013.8
20191021055854 78 343 0.0 0.0 0.00 0.01 0.00 92 1013.8
20191021055343 78 343 0.0 0.0 0.00 0.01 0.00 92 1013.8
20191021054903 78 343 0.0 0.0 0.00 0.01 0.00 92 1013.8
20191021054419 78 343 0.0 0.0 0.00 0.01 0.00 92 1013.9
20191021053838 78 343 0.0 0.0 0.00 0.01 0.00 91 1013.9
20191021053350 78 343 0.0 0.0 0.00 0.01 0.00 91 1013.9
20191021052835 78 343 0.0 0.0 0.00 0.01 0.00 90 1014.0
20191021052354 78 343 0.0 0.0 0.00 0.01 0.00 90 1014.0
20191021051836 78 343 0.0 0.0 0.00 0.01 0.00 90 1014.0
20191021051417 78 343 0.0 0.0 0.00 0.02 0.00 90 1014.0
20191021050839 78 343 0.0 0.0 0.00 0.02 0.00 90 1014.0
20191021050347 78 343 0.0 0.0 0.00 0.02 0.00 90 1014.0
20191021045904 78 343 0.0 0.0 0.00 0.02 0.00 90 1014.1
20191021045405 78 343 0.0 0.0 0.00 0.02 0.00 90 1014.1
20191021044852 78 343 0.0 0.0 0.00 0.02 0.00 90 1014.1
20191021044414 78 343 0.0 0.0 0.00 0.02 0.00 90 1014.3
20191021043834 78 343 0.0 0.0 0.00 0.02 0.00 90 1014.3
20191021043340 78 343 0.0 0.0 0.00 0.02 0.00 90 1014.3
20191021042849 78 343 0.0 0.0 0.00 0.02 0.00 90 1014.5
20191021042357 78 343 0.0 0.0 0.00 0.02 0.00 90 1014.5
20191021041837 78 343 0.0 0.0 0.00 0.02 0.00 89 1014.5
20191021041359 78 343 0.0 0.0 0.00 0.07 0.00 89 1014.5
20191021040843 78 343 0.0 0.0 0.00 0.07 0.00 89 1014.5
20191021040332 78 343 0.0 0.0 0.00 0.07 0.00 89 1014.5
20191021035912 78 343 0.0 0.0 0.00 0.07 0.02 89 1014.5
20191021035339 78 343 0.0 0.0 0.00 0.07 0.02 89 1014.5
20191021034843 78 343 0.0 0.0 0.00 0.07 0.02 88 1014.5
20191021034352 78 343 0.0 0.0 0.00 0.07 0.02 88 1014.6
20191021033833 78 343 0.0 0.0 0.00 0.07 0.02 88 1014.6
20191021033349 78 343 0.0 0.0 0.00 0.07 0.02 87 1014.6
20191021032910 78 343 0.0 0.0 0.00 0.07 0.02 87 1014.6
20191021032333 78 343 0.0 0.0 0.00 0.07 0.02 87 1014.6
20191021031914 78 343 0.0 0.0 0.00 0.07 0.02 87 1014.6
20191021031414 78 343 0.0 0.0 0.00 0.07 0.02 87 1014.5
20191021030853 78 343 0.0 0.0 0.00 0.07 0.02 87 1014.5
20191021030338 78 343 0.0 0.0 0.00 0.07 0.02 86 1014.5
20191021025907 78 343 0.0 0.0 0.00 0.07 0.02 86 1014.5
20191021025405 78 343 0.0 0.0 0.00 0.07 0.02 86 1014.5
20191021024853 78 343 0.0 0.0 0.00 0.07 0.02 86 1014.5
20191021024357 78 343 0.0 0.0 0.00 0.07 0.02 85 1014.5
20191021023838 78 343 0.0 0.0 0.00 0.07 0.02 85 1014.5
20191021023406 79 343 0.0 0.0 0.00 0.07 0.02 85 1014.5
20191021022855 79 343 0.0 0.0 0.00 0.07 0.02 85 1014.3
20191021022339 79 343 0.0 0.0 0.00 0.07 0.02 85 1014.3
20191021021849 79 343 0.0 0.0 0.00 0.07 0.02 85 1014.3
20191021021335 79 343 0.0 0.0 0.00 0.08 0.02 85 1014.1
20191021020904 79 343 0.0 0.0 0.00 0.08 0.02 85 1014.1
20191021020402 79 343 0.0 0.0 0.00 0.08 0.02 84 1014.1
20191021015847 79 343 0.0 0.0 0.00 0.08 0.02 85 1014.1
20191021015355 79 343 0.0 0.0 0.00 0.08 0.02 85 1014.1
20191021014850 79 343 0.0 0.0 0.00 0.08 0.02 85 1014.1
20191021014358 79 343 0.0 0.0 0.00 0.08 0.02 85 1013.9
20191021013842 79 343 0.0 0.0 0.00 0.08 0.02 86 1013.9
20191021013332 80 343 0.0 0.0 0.00 0.08 0.02 88 1013.9
20191021012845 80 343 0.0 0.0 0.00 0.08 0.02 88 1013.8
20191021012353 80 343 0.0 0.0 0.00 0.08 0.02 89 1013.8
20191021011845 80 343 0.0 0.0 0.00 0.08 0.02 89 1013.8